Time,TemperatureF,DewpointF,PressureIn,WindDirection,WindDirectionDegrees,WindSpeedMPH,WindSpeedGustMPH,Humidity,HourlyPrecipIn,Conditions,Clouds,dailyrainin,SoftwareType,DateUTC
2013-01-27 00:01:00,28.0,11.0,-100.00,SSW,205,10.0,17.0,47,0.00,,,-99.99,,2013-01-27 06:01:00,
2013-01-27 00:11:00,28.0,11.0,-100.00,SSW,210,12.0,17.0,47,0.00,,,-99.99,,2013-01-27 06:11:00,
2013-01-27 00:21:00,28.0,11.0,-100.00,SSW,205,15.0,18.0,47,0.00,,,-99.99,,2013-01-27 06:21:00,
2013-01-27 00:32:00,28.0,11.0,-100.00,SSW,200,14.0,17.0,47,0.00,,,-99.99,,2013-01-27 06:32:00,
2013-01-27 00:41:00,28.0,11.0,-100.00,SSW,200,14.0,17.0,47,0.00,,,-99.99,,2013-01-27 06:41:00,
2013-01-27 00:51:00,28.0,11.0,-100.00,SW,215,12.0,19.0,48,0.00,,,-99.99,,2013-01-27 06:51:00,
2013-01-27 01:01:00,28.0,11.0,-100.00,SW,215,12.0,19.0,48,0.00,,,-99.99,,2013-01-27 07:01:00,
2013-01-27 01:13:00,28.0,11.0,-100.00,SSW,205,14.0,18.0,48,0.00,,,-99.99,,2013-01-27 07:13:00,
2013-01-27 01:21:00,28.0,11.0,-100.00,SSW,210,14.0,18.0,48,0.00,,,-99.99,,2013-01-27 07:21:00,
2013-01-27 01:31:00,29.0,12.0,-100.00,SSW,210,13.0,17.0,48,0.00,,,-99.99,,2013-01-27 07:31:00,
2013-01-27 01:41:00,29.0,12.0,-100.00,SSW,210,13.0,17.0,48,0.00,,,-99.99,,2013-01-27 07:41:00,
2013-01-27 01:51:00,29.0,12.0,-100.00,SSW,210,15.0,20.0,48,0.00,,,-99.99,,2013-01-27 07:51:00,
2013-01-27 02:01:00,29.0,12.0,-100.00,SSW,210,15.0,20.0,48,0.00,,,-99.99,,2013-01-27 08:01:00,
2013-01-27 02:11:00,29.0,12.0,-100.00,SSW,205,13.0,19.0,48,0.00,,,-99.99,,2013-01-27 08:11:00,
2013-01-27 02:22:00,29.0,12.0,-100.00,SW,215,11.0,17.0,48,0.00,,,-99.99,,2013-01-27 08:22:00,
2013-01-27 02:31:00,29.0,12.0,-100.00,SSW,205,17.0,21.0,48,0.00,,,-99.99,,2013-01-27 08:31:00,
2013-01-27 02:41:00,29.0,12.0,-100.00,SSW,205,17.0,21.0,48,0.00,,,-99.99,,2013-01-27 08:41:00,
2013-01-27 02:52:00,29.0,12.0,-100.00,SSW,210,14.0,21.0,48,0.00,,,-99.99,,2013-01-27 08:52:00,
2013-01-27 03:02:00,29.0,12.0,-100.00,SSW,210,14.0,21.0,48,0.00,,,-99.99,,2013-01-27 09:02:00,
2013-01-27 03:11:00,29.0,13.0,-100.00,SSW,205,11.0,21.0,49,0.00,,,-99.99,,2013-01-27 09:11:00,
2013-01-27 03:21:00,29.0,13.0,-100.00,South,185,14.0,19.0,49,0.00,,,-99.99,,2013-01-27 09:21:00,
2013-01-27 03:32:00,29.0,13.0,-100.00,SSW,200,8.0,17.0,50,0.00,,,-99.99,,2013-01-27 09:32:00,
2013-01-27 03:41:00,29.0,13.0,-100.00,SSW,200,8.0,17.0,50,0.00,,,-99.99,,2013-01-27 09:41:00,
2013-01-27 03:51:00,29.0,13.0,-100.00,SSW,200,10.0,16.0,50,0.00,,,-99.99,,2013-01-27 09:51:00,
2013-01-27 04:01:00,29.0,13.0,-100.00,SSW,200,10.0,16.0,50,0.00,,,-99.99,,2013-01-27 10:01:00,
2013-01-27 04:11:00,29.0,13.0,-100.00,SSW,210,12.0,17.0,50,0.00,,,-99.99,,2013-01-27 10:11:00,
2013-01-27 04:21:00,29.0,13.0,-100.00,SSW,200,13.0,17.0,50,0.00,,,-99.99,,2013-01-27 10:21:00,
2013-01-27 04:31:00,30.0,14.0,-100.00,SSW,195,12.0,19.0,50,0.00,,,-99.99,,2013-01-27 10:31:00,
2013-01-27 04:41:00,30.0,14.0,-100.00,SSW,195,12.0,19.0,50,0.00,,,-99.99,,2013-01-27 10:41:00,
2013-01-27 04:51:00,30.0,14.0,-100.00,SSW,200,12.0,17.0,51,0.00,,,-99.99,,2013-01-27 10:51:00,
2013-01-27 05:01:00,30.0,14.0,-100.00,SSW,200,12.0,17.0,51,0.00,,,-99.99,,2013-01-27 11:01:00,
2013-01-27 05:11:00,30.0,14.0,-100.00,SSW,200,11.0,17.0,51,0.00,,,-99.99,,2013-01-27 11:11:00,
2013-01-27 05:21:00,30.0,14.0,-100.00,SSW,195,12.0,16.0,52,0.00,,,-99.99,,2013-01-27 11:21:00,
2013-01-27 05:32:00,29.0,15.0,-100.00,South,190,12.0,18.0,53,0.00,,,-99.99,,2013-01-27 11:32:00,
2013-01-27 05:42:00,29.0,15.0,-100.00,South,190,12.0,18.0,53,0.00,,,-99.99,,2013-01-27 11:42:00,
2013-01-27 05:52:00,30.0,15.0,-100.00,SSW,195,12.0,18.0,53,0.00,,,-99.99,,2013-01-27 11:52:00,
2013-01-27 06:02:00,30.0,15.0,-100.00,SSW,195,12.0,18.0,53,0.00,,,-99.99,,2013-01-27 12:02:00,
2013-01-27 06:11:00,29.0,15.0,-100.00,SSW,205,11.0,18.0,53,0.00,,,-99.99,,2013-01-27 12:11:00,
2013-01-27 06:21:00,29.0,15.0,-100.00,SSW,205,16.0,19.0,53,0.00,,,-99.99,,2013-01-27 12:21:00,
2013-01-27 06:32:00,29.0,15.0,-100.00,SSW,205,12.0,17.0,54,0.00,,,-99.99,,2013-01-27 12:32:00,
2013-01-27 06:42:00,29.0,15.0,-100.00,SSW,205,12.0,17.0,54,0.00,,,-99.99,,2013-01-27 12:42:00,
2013-01-27 06:52:00,30.0,15.0,-100.00,SSW,210,13.0,19.0,54,0.00,,,-99.99,,2013-01-27 12:52:00,
2013-01-27 07:02:00,30.0,15.0,-100.00,SSW,210,13.0,19.0,54,0.00,,,-99.99,,2013-01-27 13:02:00,
2013-01-27 07:11:00,30.0,15.0,-100.00,SSW,200,8.0,16.0,54,0.00,,,-99.99,,2013-01-27 13:11:00,
2013-01-27 07:22:00,30.0,15.0,-100.00,SSW,195,12.0,15.0,54,0.00,,,-99.99,,2013-01-27 13:22:00,
2013-01-27 07:32:00,30.0,15.0,-100.00,SSW,200,9.0,12.0,54,0.00,,,-99.99,,2013-01-27 13:32:00,
2013-01-27 07:42:00,30.0,15.0,-100.00,SSW,200,9.0,12.0,54,0.00,,,-99.99,,2013-01-27 13:42:00,
2013-01-27 07:52:00,30.0,16.0,-100.00,SSW,210,11.0,13.0,54,0.00,,,-99.99,,2013-01-27 13:52:00,
2013-01-27 08:02:00,30.0,16.0,-100.00,SSW,210,11.0,13.0,54,0.00,,,-99.99,,2013-01-27 14:02:00,
2013-01-27 08:11:00,30.0,16.0,-100.00,SSW,205,11.0,14.0,54,0.00,,,-99.99,,2013-01-27 14:11:00,
2013-01-27 08:22:00,30.0,16.0,-100.00,SSW,210,12.0,14.0,54,0.00,,,-99.99,,2013-01-27 14:22:00,
2013-01-27 08:32:00,30.0,16.0,-100.00,SSW,205,12.0,16.0,53,0.00,,,-99.99,,2013-01-27 14:32:00,
2013-01-27 08:42:00,30.0,16.0,-100.00,SSW,205,12.0,16.0,53,0.00,,,-99.99,,2013-01-27 14:42:00,
2013-01-27 08:52:00,30.0,16.0,-100.00,SSW,210,11.0,15.0,53,0.10,,,-99.99,,2013-01-27 14:52:00,
2013-01-27 09:02:00,30.0,16.0,-100.00,SSW,210,11.0,15.0,53,0.10,,,-99.99,,2013-01-27 15:02:00,
2013-01-27 09:11:00,30.0,16.0,-100.00,SSW,200,12.0,17.0,54,0.08,,,-99.99,,2013-01-27 15:11:00,
2013-01-27 09:22:00,30.0,16.0,-100.00,SSW,200,12.0,16.0,55,0.11,,,-99.99,,2013-01-27 15:22:00,
2013-01-27 09:32:00,30.0,19.0,-100.00,South,185,14.0,18.0,62,0.00,,,-99.99,,2013-01-27 15:32:00,
2013-01-27 09:42:00,30.0,19.0,-100.00,South,185,14.0,18.0,62,0.00,,,-99.99,,2013-01-27 15:42:00,
2013-01-27 09:52:00,30.0,20.0,-100.00,South,180,13.0,21.0,67,0.00,,,-99.99,,2013-01-27 15:52:00,
2013-01-27 10:02:00,30.0,20.0,-100.00,South,180,13.0,21.0,67,0.00,,,-99.99,,2013-01-27 16:02:00,
2013-01-27 10:11:00,29.0,20.0,-100.00,South,175,15.0,21.0,68,0.00,,,-99.99,,2013-01-27 16:11:00,
2013-01-27 10:21:00,30.0,21.0,-100.00,South,170,12.0,20.0,69,0.00,,,-99.99,,2013-01-27 16:21:00,
2013-01-27 10:32:00,30.0,22.0,-100.00,South,170,16.0,23.0,71,0.00,,,-99.99,,2013-01-27 16:32:00,
2013-01-27 10:42:00,30.0,22.0,-100.00,South,170,16.0,23.0,71,0.00,,,-99.99,,2013-01-27 16:42:00,
2013-01-27 10:52:00,31.0,23.0,-100.00,South,170,12.0,21.0,73,0.07,,,-99.99,,2013-01-27 16:52:00,
2013-01-27 11:02:00,31.0,23.0,-100.00,South,170,12.0,21.0,73,0.07,,,-99.99,,2013-01-27 17:02:00,
2013-01-27 11:12:00,31.0,24.0,-100.00,South,180,11.0,19.0,74,0.23,,,-99.99,,2013-01-27 17:12:00,
2013-01-27 11:21:00,31.0,24.0,-100.00,South,170,9.0,14.0,76,0.13,,,-99.99,,2013-01-27 17:21:00,
2013-01-27 11:32:00,31.0,25.0,-100.00,SSE,160,14.0,18.0,77,0.21,,,-99.99,,2013-01-27 17:32:00,
2013-01-27 11:42:00,31.0,25.0,-100.00,South,185,14.0,17.0,78,0.13,,,-99.99,,2013-01-27 17:42:00,
2013-01-27 11:52:00,31.0,26.0,-100.00,South,180,6.0,14.0,81,0.23,,,-99.99,,2013-01-27 17:52:00,
2013-01-27 12:02:00,31.0,26.0,-100.00,South,180,6.0,14.0,81,0.23,,,-99.99,,2013-01-27 18:02:00,
2013-01-27 12:11:00,31.0,27.0,-100.00,South,180,7.0,11.0,83,0.38,,,-99.99,,2013-01-27 18:11:00,
2013-01-27 12:22:00,31.0,27.0,-100.00,South,190,5.0,9.0,84,0.24,,,-99.99,,2013-01-27 18:22:00,
2013-01-27 12:32:00,31.0,28.0,-100.00,South,185,6.0,7.0,87,0.13,,,-99.99,,2013-01-27 18:32:00,
2013-01-27 12:42:00,31.0,28.0,-100.00,South,185,6.0,7.0,87,0.13,,,-99.99,,2013-01-27 18:42:00,
2013-01-27 12:52:00,32.0,28.0,-100.00,South,175,3.0,6.0,87,0.13,,,-99.99,,2013-01-27 18:52:00,
2013-01-27 13:02:00,32.0,28.0,-100.00,South,175,3.0,6.0,87,0.13,,,-99.99,,2013-01-27 19:02:00,
2013-01-27 13:11:00,32.0,29.0,-100.00,South,190,3.0,4.0,88,0.07,,,-99.99,,2013-01-27 19:11:00,
2013-01-27 13:22:00,32.0,29.0,-100.00,South,180,2.0,4.0,88,0.21,,,-99.99,,2013-01-27 19:22:00,
2013-01-27 13:32:00,32.0,29.0,-100.00,South,175,3.0,6.0,88,0.16,,,-99.99,,2013-01-27 19:32:00,
2013-01-27 13:41:00,32.0,29.0,-100.00,South,175,3.0,6.0,88,0.16,,,-99.99,,2013-01-27 19:41:00,
2013-01-27 13:51:00,32.0,29.0,-100.00,South,180,4.0,6.0,88,0.03,,,-99.99,,2013-01-27 19:51:00,
2013-01-27 14:02:00,32.0,29.0,-100.00,South,180,4.0,6.0,88,0.03,,,-99.99,,2013-01-27 20:02:00,
2013-01-27 14:11:00,33.0,29.0,-100.00,SSW,200,2.0,4.0,88,0.03,,,-99.99,,2013-01-27 20:11:00,
2013-01-27 14:22:00,33.0,30.0,-100.00,SSW,195,3.0,4.0,88,0.01,,,-99.99,,2013-01-27 20:22:00,
2013-01-27 14:32:00,33.0,30.0,-100.00,South,185,4.0,4.0,88,0.10,,,-99.99,,2013-01-27 20:32:00,
2013-01-27 14:42:00,33.0,30.0,-100.00,South,185,4.0,4.0,88,0.10,,,-99.99,,2013-01-27 20:42:00,
2013-01-27 14:52:00,33.0,30.0,-100.00,SSW,200,4.0,5.0,88,0.07,,,-99.99,,2013-01-27 20:52:00,
2013-01-27 15:02:00,33.0,30.0,-100.00,SSW,200,4.0,5.0,88,0.07,,,-99.99,,2013-01-27 21:02:00,
2013-01-27 15:12:00,33.0,30.0,-100.00,SSW,200,3.0,4.0,88,0.00,,,-99.99,,2013-01-27 21:12:00,
2013-01-27 15:22:00,33.0,30.0,-100.00,SSW,195,3.0,4.0,88,0.00,,,-99.99,,2013-01-27 21:22:00,
2013-01-27 15:33:00,33.0,30.0,-100.00,SSW,200,3.0,4.0,88,0.00,,,-99.99,,2013-01-27 21:33:00,
2013-01-27 15:42:00,33.0,30.0,-100.00,SSW,200,3.0,4.0,88,0.00,,,-99.99,,2013-01-27 21:42:00,
2013-01-27 15:52:00,34.0,31.0,-100.00,SSW,200,2.0,4.0,88,0.00,,,-99.99,,2013-01-27 21:52:00,
2013-01-27 16:02:00,34.0,31.0,-100.00,SSW,200,2.0,4.0,88,0.00,,,-99.99,,2013-01-27 22:02:00,
2013-01-27 16:11:00,34.0,31.0,-100.00,SSW,200,4.0,23.0,88,0.00,,,-99.99,,2013-01-27 22:11:00,
2013-01-27 16:22:00,34.0,31.0,-100.00,SSW,205,19.0,26.0,88,0.06,,,-99.99,,2013-01-27 22:22:00,
2013-01-27 16:32:00,34.0,31.0,-100.00,SSW,205,15.0,22.0,88,0.06,,,-99.99,,2013-01-27 22:32:00,
2013-01-27 16:42:00,34.0,31.0,-100.00,SSW,205,15.0,22.0,88,0.06,,,-99.99,,2013-01-27 22:42:00,
2013-01-27 16:51:00,34.0,31.0,-100.00,SSW,210,17.0,24.0,88,0.00,,,-99.99,,2013-01-27 22:51:00,
2013-01-27 17:02:00,34.0,31.0,-100.00,SSW,210,17.0,24.0,88,0.00,,,-99.99,,2013-01-27 23:02:00,
2013-01-27 17:12:00,34.0,31.0,-100.00,SSW,205,18.0,23.0,88,0.06,,,-99.99,,2013-01-27 23:12:00,
2013-01-27 17:21:00,35.0,32.0,-100.00,SSW,210,20.0,29.0,89,0.07,,,-99.99,,2013-01-27 23:21:00,
2013-01-27 17:32:00,35.0,32.0,-100.00,SSW,210,18.0,26.0,89,0.10,,,-99.99,,2013-01-27 23:32:00,
2013-01-27 17:41:00,35.0,32.0,-100.00,SSW,210,18.0,26.0,89,0.10,,,-99.99,,2013-01-27 23:41:00,
2013-01-27 17:52:00,35.0,32.0,-100.00,SSW,205,21.0,26.0,89,0.00,,,-99.99,,2013-01-27 23:52:00,
2013-01-27 18:02:00,35.0,32.0,-100.00,SSW,205,21.0,26.0,89,0.00,,,-99.99,,2013-01-28 00:02:00,
2013-01-27 18:11:00,35.0,32.0,-100.00,SSW,210,20.0,27.0,89,0.00,,,-99.99,,2013-01-28 00:11:00,
2013-01-27 18:21:00,35.0,32.0,-100.00,SSW,210,20.0,25.0,89,0.00,,,-99.99,,2013-01-28 00:21:00,
2013-01-27 18:32:00,36.0,33.0,-100.00,SSW,205,17.0,23.0,89,0.00,,,-99.99,,2013-01-28 00:32:00,
2013-01-27 18:42:00,36.0,33.0,-100.00,SSW,205,17.0,23.0,89,0.00,,,-99.99,,2013-01-28 00:42:00,
2013-01-27 18:51:00,36.0,33.0,-100.00,SW,215,15.0,24.0,89,0.00,,,-99.99,,2013-01-28 00:51:00,
2013-01-27 19:01:00,36.0,33.0,-100.00,SW,215,15.0,24.0,89,0.00,,,-99.99,,2013-01-28 01:01:00,
2013-01-27 19:11:00,36.0,33.0,-100.00,SW,215,13.0,18.0,89,0.00,,,-99.99,,2013-01-28 01:11:00,
2013-01-27 19:21:00,36.0,33.0,-100.00,SSW,210,12.0,17.0,89,0.00,,,-99.99,,2013-01-28 01:21:00,
2013-01-27 19:32:00,37.0,34.0,-100.00,SW,215,13.0,19.0,89,0.00,,,-99.99,,2013-01-28 01:32:00,
2013-01-27 19:42:00,37.0,34.0,-100.00,SW,215,13.0,19.0,89,0.00,,,-99.99,,2013-01-28 01:42:00,
2013-01-27 19:51:00,37.0,34.0,-100.00,SW,215,12.0,19.0,89,0.00,,,-99.99,,2013-01-28 01:51:00,
2013-01-27 20:02:00,37.0,34.0,-100.00,SW,215,12.0,19.0,89,0.00,,,-99.99,,2013-01-28 02:02:00,
2013-01-27 20:11:00,37.0,35.0,-100.00,SW,220,12.0,17.0,89,0.00,,,-99.99,,2013-01-28 02:11:00,
2013-01-27 20:22:00,38.0,35.0,-100.00,SW,220,14.0,18.0,89,0.00,,,-99.99,,2013-01-28 02:22:00,
2013-01-27 20:32:00,38.0,35.0,-100.00,SW,215,13.0,17.0,89,0.00,,,-99.99,,2013-01-28 02:32:00,
2013-01-27 20:42:00,38.0,35.0,-100.00,SW,215,13.0,17.0,89,0.00,,,-99.99,,2013-01-28 02:42:00,
2013-01-27 20:52:00,38.0,35.0,-100.00,SW,220,9.0,16.0,89,0.00,,,-99.99,,2013-01-28 02:52:00,
2013-01-27 21:02:00,38.0,35.0,-100.00,SW,220,9.0,16.0,89,0.00,,,-99.99,,2013-01-28 03:02:00,
2013-01-27 21:11:00,38.0,35.0,-100.00,SW,215,9.0,12.0,89,0.00,,,-99.99,,2013-01-28 03:11:00,
2013-01-27 21:21:00,38.0,35.0,-100.00,SW,215,8.0,12.0,89,0.00,,,-99.99,,2013-01-28 03:21:00,
2013-01-27 21:32:00,39.0,36.0,-100.00,SW,220,9.0,14.0,89,0.00,,,-99.99,,2013-01-28 03:32:00,
2013-01-27 21:41:00,39.0,36.0,-100.00,SW,220,9.0,14.0,89,0.00,,,-99.99,,2013-01-28 03:41:00,
2013-01-27 21:52:00,39.0,36.0,-100.00,SW,215,11.0,14.0,89,0.00,,,-99.99,,2013-01-28 03:52:00,
2013-01-27 22:02:00,39.0,36.0,-100.00,SW,215,11.0,14.0,89,0.00,,,-99.99,,2013-01-28 04:02:00,
2013-01-27 22:11:00,39.0,36.0,-100.00,SW,220,11.0,15.0,89,0.00,,,-99.99,,2013-01-28 04:11:00,
2013-01-27 22:21:00,39.0,36.0,-100.00,SW,220,10.0,16.0,89,0.00,,,-99.99,,2013-01-28 04:21:00,
2013-01-27 22:32:00,40.0,37.0,-100.00,SW,220,11.0,17.0,89,0.00,,,-99.99,,2013-01-28 04:32:00,
2013-01-27 22:41:00,40.0,37.0,-100.00,SW,220,11.0,17.0,89,0.00,,,-99.99,,2013-01-28 04:41:00,
2013-01-27 22:52:00,41.0,38.0,-100.00,SW,230,15.0,21.0,89,0.00,,,-99.99,,2013-01-28 04:52:00,
2013-01-27 23:03:00,41.0,38.0,-100.00,SW,230,15.0,21.0,89,0.00,,,-99.99,,2013-01-28 05:03:00,
2013-01-27 23:11:00,42.0,39.0,-100.00,SW,230,12.0,21.0,89,0.00,,,-99.99,,2013-01-28 05:11:00,
2013-01-27 23:21:00,42.0,39.0,-100.00,SW,230,13.0,24.0,89,0.00,,,-99.99,,2013-01-28 05:21:00,
2013-01-27 23:32:00,42.0,39.0,-100.00,SW,235,14.0,20.0,89,0.00,,,-99.99,,2013-01-28 05:32:00,
2013-01-27 23:41:00,42.0,39.0,-100.00,SW,235,14.0,20.0,89,0.00,,,-99.99,,2013-01-28 05:41:00,
2013-01-27 23:52:00,43.0,40.0,-100.00,WSW,240,14.0,22.0,89,0.00,,,-99.99,,2013-01-28 05:52:00,